[[{"header":{"parameterUnit":"m.s-1","parameterCategory":1,"la1":30.2991,"la2":30.254,"lo1":-89.0895,"lo2":-89.0444,"dy":0.0017,"dx":0.0017,"nx":28,"ny":28,"refTime":"2024-10-20T09:00:00:Z","depth":0,"parameterNumber":2,"parameterNumberName":"U-component_of_WINDS"},"data":[0,0,0,0,0,0,0,0,0,0,0,0,0,0,0,0,0,0,0,0,0,0,0,0,0,0,0,0,0,0,0,0,0,0,0,0,0,0,0,0,0,0,0,0,0,0,0,0,0,0,0,0,0,0,0,0,0,0,-3.0607,-3.0608,0,-3.067,-3.067,-3.0671,-3.0558,-3.0554,-3.055,-3.0546,-3.0611,-3.0617,-3.0622,0,0,0,0,0,0,0,0,0,0,0,0,0,-3.0389,-3.0394,-3.0607,-3.0608,-3.0608,-3.067,-3.067,-3.0671,-3.0558,-3.0554,-3.0549,-3.0545,-3.061,-3.0616,-3.0622,0,0,0,0,0,0,0,0,0,0,0,0,0,-3.0471,-3.0395,-3.0607,-3.0559,-3.0556,-3.0669,-3.067,-3.0671,-3.0559,-3.0554,-3.0548,-3.0543,-3.0608,-3.0615,-3.0623,-3.0786,0,0,-3.0647,-3.0651,0,0,0,0,0,0,0,0,-3.0467,-3.0479,-3.0566,-3.0563,-3.0559,-3.06,-3.0617,-3.071,-3.0561,-3.0558,-3.0546,-3.054,-3.0612,-3.0619,-3.0644,-3.0789,-3.0792,-3.0648,-3.0653,-3.0656,-3.0658,0,0,0,0,0,0,0,-3.0461,-3.0476,-3.0632,-3.0567,-3.0563,-3.0535,-3.054,-3.0634,-3.0616,-3.0558,-3.055,-3.0559,-3.0609,-3.0636,-3.0644,-3.0793,-3.0648,-3.0655,-3.066,-3.0663,-3.1076,-3.1081,0,0,0,0,0,0,-3.0461,-3.0472,-3.063,-3.0634,-3.0498,-3.0544,-3.055,-3.0593,-3.0615,-3.0613,-3.0563,-3.0553,-3.0626,-3.0635,-3.0646,-3.084,-3.0656,-3.0664,-3.0668,-3.1069,-3.1077,-3.1084,0,0,0,0,0,0,-3.0457,-3.0476,-3.0627,-3.0551,-3.0568,-3.0553,-3.0603,-3.0597,-3.0624,-3.0619,-3.0615,-3.0595,-3.0622,-3.0635,-3.0752,-3.084,-3.0667,-3.0674,-3.1062,-3.1072,-3.108,-3.1227,0,0,0,0,0,0,-3.0451,-3.0476,-3.0537,-3.0553,-3.0572,-3.0733,-3.0608,-3.0602,-3.0638,-3.0625,-3.0647,-3.0646,-3.0618,-3.0741,-3.076,-3.0848,-3.068,-3.1054,-3.1066,-3.1077,-3.1215,-3.1241,-3.1263,0,0,0,0,0,-3.0444,-3.0576,-3.0541,-3.0561,-3.0649,-3.0738,-3.0749,-3.0714,-3.0645,-3.0707,-3.0704,-3.0645,-3.0827,-3.0754,-3.0775,-3.0866,-3.1048,-3.1063,-3.1076,-3.1204,-3.1236,-3.1262,0,0,0,0,0,0,-3.0572,-3.0577,-3.0539,-3.068,-3.0709,-3.0719,-3.0796,-3.0749,-3.0799,-3.0785,-3.0739,-3.0746,-3.0872,-3.088,-3.0799,-3.1025,-3.0926,-3.0945,-3.1016,-3.1046,-3.107,-3.1066,-3.0687,0,0,0,0,0,-3.0616,-3.0688,-3.0689,-3.0813,-3.083,-3.0811,-3.0848,-3.0819,-3.0848,-3.086,-3.0865,-3.0895,-3.0959,-3.1002,-3.1061,-3.1214,-3.1218,-3.1287,-3.1311,-3.1331,-3.1349,-3.1432,-3.1463,-3.113,-3.1129,-3.1129,0,0,-3.071,-3.0721,-3.0769,-3.0839,-3.0859,-3.0934,-3.0822,-3.0906,-3.0962,-3.0872,-3.0984,-3.0989,-3.1019,-3.1156,-3.1216,-3.1167,-3.1441,-3.1349,-3.1365,-3.1372,-3.1449,-3.1481,-3.1509,-3.1139,-3.1137,-3.1136,0,0,-3.0918,-3.0934,-3.104,-3.1062,-3.1092,-3.1078,-3.1104,-3.1121,-3.1121,-3.1231,-3.1166,-3.1231,-3.1342,-3.1367,-3.1394,-3.1612,-3.156,-3.1632,-3.1759,-3.184,-3.1866,-3.1889,-3.1969,-3.1998,-3.1649,-3.1649,-3.1649,0,-3.1031,-3.1142,-3.1101,-3.119,-3.1223,-3.1145,-3.1252,-3.1275,-3.1323,-3.1348,-3.1291,-3.1429,-3.1444,-3.1586,-3.1639,-3.1663,-3.1692,-3.163,-3.1866,-3.1888,-3.1909,-3.1985,-3.2015,-3.1658,-3.1657,-3.1656,-3.1655,0,-3.1279,-3.1357,-3.1439,-3.1488,-3.153,-3.1628,-3.1602,-3.165,-3.1616,-3.1609,-3.1723,-3.1738,-3.1798,-3.1829,-3.1797,-3.1967,-3.1935,-3.1873,-3.1773,-3.1951,-3.2021,-3.2049,-3.167,-3.1667,-3.1665,-3.1662,0,0,-3.1573,-3.1597,-3.1628,-3.165,-3.1677,-3.1737,-3.1831,-3.189,-3.1933,-3.1968,-3.2047,-3.2142,-3.2085,-3.2116,-3.2086,-3.2157,-3.233,-3.2085,-3.2085,-3.2132,-3.252,-3.2568,-3.2602,-3.2294,-3.23,-3.2304,-3.2518,0,-3.1782,-3.1945,-3.1911,-3.2071,-3.2143,-3.2069,-3.2151,-3.2177,-3.2172,-3.2232,-3.2226,-3.2295,-3.2213,-3.2231,-3.2298,-3.2295,-3.2408,-3.2279,-3.2369,-3.2373,-3.2366,-3.2639,-3.269,-3.2892,-3.2545,-3.2549,-3.2553,0,-3.2048,-3.2094,-3.2262,-3.2279,-3.2308,-3.2382,-3.2434,-3.2492,-3.252,-3.2511,-3.2546,-3.2502,-3.2596,-3.2493,-3.2622,-3.2535,-3.2569,-3.2573,-3.258,-3.2589,-3.2475,-3.2658,-3.2955,-3.2986,-3.2595,-3.2592,-3.2589,0,-3.2249,-3.2352,-3.2466,-3.2486,-3.2508,-3.2562,-3.2574,-3.2596,-3.2634,-3.2678,-3.2703,-3.2758,-3.2789,-3.2832,-3.2805,-3.2732,-3.2939,-3.2833,-3.2936,-3.2937,-3.2985,-3.2983,-3.3295,-3.3004,-3.3003,-3.3003,-3.3002,0,-3.2487,-3.2594,-3.2556,-3.2627,-3.2744,-3.2702,-3.2819,-3.2821,-3.2842,-3.2912,-3.2849,-3.2916,-3.2874,-3.2938,-3.2916,-3.3028,-3.3041,-3.3038,-3.3032,-3.3045,-3.3046,-3.3069,-3.3055,-3.301,-3.3009,-3.3007,-3.3006,0,-3.2732,-3.2711,-3.2831,-3.2841,-3.2846,-3.2932,-3.2941,-3.3006,-3.2996,-3.3085,-3.3104,-3.3088,-3.3159,-3.3135,-3.3212,-3.3197,-3.334,-3.3314,-3.3331,-3.3325,-3.343,-3.3421,-3.3769,-3.3814,-3.3492,-3.3495,-3.3497,0,-3.2887,-3.2967,-3.2986,-3.3028,-3.3045,-3.3113,-3.3152,-3.3113,-3.3156,-3.3193,-3.3255,-3.3321,-3.3372,-3.349,-3.3485,-3.3544,-3.352,-3.3638,-3.3529,-3.354,-3.3525,-3.3521,-3.353,-3.3661,-3.3665,-3.3668,-3.367,0,-3.3166,-3.3151,-3.3209,-3.3264,-3.3312,-3.3353,-3.3388,-3.3426,-3.339,-3.3441,-3.3513,-3.3553,-3.3631,-3.3698,-3.375,-3.3762,-3.3712,-3.3704,-3.3731,-3.3747,-3.3755,-3.3755,-3.3393,-3.3697,-3.3694,-3.3692,-3.3691,-3.369,-3.3372,-3.344,-3.3464,-3.3531,-3.3553,-3.3588,-3.3651,-3.3648,-3.3707,-3.3768,-3.3741,-3.3826,-3.3851,-3.3916,-3.3935,-3.4,-3.3955,-3.3994,-3.4004,-3.4015,-3.4029,-3.3742,-3.4009,-3.4008,-3.4007,-3.4007,-3.4006,0,-3.3649,-3.3661,-3.3722,-3.3774,-3.3827,-3.3772,-3.3809,-3.3857,-3.3932,-3.3959,-3.4011,-3.4094,-3.4158,-3.4158,-3.4218,-3.4271,-3.4249,-3.4288,-3.4285,-3.4289,-3.4065,-3.4037,-3.4305,-3.4304,-3.4304,-3.4304,-3.4304,-3.4304,-3.38,-3.3913,-3.3901,-3.4025,-3.4035,-3.4117,-3.4143,-3.4174,-3.4196,-3.4293,-3.4346,-3.4345,-3.4362,-3.4422,-3.4479,-3.4477,-3.4503,-3.4552,-3.4542,-3.4334,-3.4304,-3.4276,-3.4249,-3.4557,-3.4557,-3.476,-3.4761,-3.4763]},{"header":{"parameterUnit":"m.s-1","parameterCategory":1,"la1":30.2991,"la2":30.254,"lo1":-89.0895,"lo2":-89.0444,"dy":0.0017,"dx":0.0017,"nx":28,"ny":28,"refTime":"2024-10-20T09:00:00:Z","depth":0,"parameterNumber":3,"parameterNumberName":"V-component_of_WINDS"},"data":[0,0,0,0,0,0,0,0,0,0,0,0,0,0,0,0,0,0,0,0,0,0,0,0,0,0,0,0,0,0,0,0,0,0,0,0,0,0,0,0,0,0,0,0,0,0,0,0,0,0,0,0,0,0,0,0,0,0,-4.9444,-4.9445,0,-4.947,-4.947,-4.947,-4.9394,-4.9392,-4.939,-4.9388,-4.9411,-4.9414,-4.9417,0,0,0,0,0,0,0,0,0,0,0,0,0,-4.9326,-4.9329,-4.9444,-4.9445,-4.9445,-4.947,-4.947,-4.947,-4.9395,-4.9392,-4.9389,-4.9387,-4.9411,-4.9414,-4.9417,0,0,0,0,0,0,0,0,0,0,0,0,0,-4.9367,-4.933,-4.9444,-4.941,-4.9407,-4.947,-4.947,-4.947,-4.9395,-4.9392,-4.9388,-4.9385,-4.9409,-4.9413,-4.9418,-4.9513,0,0,-4.943,-4.9432,0,0,0,0,0,0,0,0,-4.9365,-4.9372,-4.9415,-4.9413,-4.941,-4.9425,-4.9437,-4.9485,-4.9396,-4.94,-4.9388,-4.9384,-4.9419,-4.9422,-4.9434,-4.9514,-4.9515,-4.9431,-4.9433,-4.9435,-4.9436,0,0,0,0,0,0,0,-4.9362,-4.937,-4.9454,-4.9416,-4.9412,-4.9392,-4.9394,-4.9446,-4.9428,-4.9399,-4.9394,-4.9398,-4.9417,-4.943,-4.9434,-4.9516,-4.9431,-4.9434,-4.9437,-4.9439,-4.9673,-4.9676,0,0,0,0,0,0,-4.9364,-4.9368,-4.9453,-4.9455,-4.9378,-4.9397,-4.94,-4.9424,-4.9428,-4.9425,-4.9401,-4.9394,-4.9425,-4.9429,-4.9435,-4.9545,-4.9435,-4.9439,-4.9441,-4.9669,-4.9674,-4.9678,0,0,0,0,0,0,-4.9362,-4.9373,-4.9452,-4.941,-4.9419,-4.9403,-4.9431,-4.9426,-4.944,-4.9429,-4.9425,-4.9419,-4.9422,-4.9429,-4.9494,-4.9545,-4.9441,-4.9445,-4.9665,-4.9671,-4.9676,-4.9768,0,0,0,0,0,0,-4.9359,-4.9372,-4.9409,-4.9412,-4.9421,-4.9512,-4.9434,-4.9429,-4.9448,-4.9439,-4.9444,-4.9442,-4.942,-4.9488,-4.9498,-4.9549,-4.9448,-4.966,-4.9667,-4.9674,-4.976,-4.9776,-4.979,0,0,0,0,0,-4.9355,-4.9434,-4.9412,-4.9422,-4.9468,-4.9516,-4.9521,-4.9495,-4.9452,-4.9488,-4.9481,-4.9442,-4.9538,-4.9495,-4.9506,-4.9559,-4.9657,-4.9665,-4.9673,-4.9754,-4.9773,-4.9789,0,0,0,0,0,0,-4.9438,-4.9434,-4.9409,-4.9492,-4.9505,-4.9503,-4.9548,-4.9516,-4.9541,-4.9532,-4.9498,-4.95,-4.9571,-4.9571,-4.9524,-4.965,-4.959,-4.9601,-4.9647,-4.9666,-4.968,-4.9678,-4.9452,0,0,0,0,0,-4.9466,-4.9506,-4.95,-4.9574,-4.9582,-4.9564,-4.9584,-4.9563,-4.9574,-4.9579,-4.9577,-4.9589,-4.9621,-4.9644,-4.9673,-4.976,-4.9759,-4.9802,-4.9817,-4.9829,-4.9838,-4.9882,-4.99,-4.9705,-4.9705,-4.9705,0,0,-4.9524,-4.9527,-4.9555,-4.9591,-4.9598,-4.9639,-4.9569,-4.9616,-4.9645,-4.9586,-4.9647,-4.9646,-4.9657,-4.9733,-4.9766,-4.9735,-4.9892,-4.9839,-4.9849,-4.9852,-4.9893,-4.9911,-4.9928,-4.9711,-4.971,-4.9709,0,0,-4.9651,-4.9658,-4.9719,-4.9728,-4.974,-4.9728,-4.9742,-4.9745,-4.9742,-4.9803,-4.9758,-4.9793,-4.9851,-4.986,-4.9872,-5.0001,-4.9965,-5.0011,-5.0087,-5.0131,-5.0146,-5.016,-5.0204,-5.022,-5.0021,-5.0021,-5.0021,0,-4.9721,-4.9782,-4.9754,-4.9804,-4.982,-4.9768,-4.9829,-4.9839,-4.986,-4.9872,-4.9837,-4.9907,-4.9912,-4.9988,-5.0019,-5.0032,-5.0046,-5.001,-5.0146,-5.016,-5.0172,-5.0213,-5.023,-5.0027,-5.0026,-5.0026,-5.0025,0,-4.9867,-4.991,-4.9958,-4.998,-5.0001,-5.0057,-5.0035,-5.006,-5.0037,-5.0028,-5.0089,-5.0092,-5.0121,-5.0137,-5.0115,-5.0211,-5.0191,-5.0152,-5.009,-5.0196,-5.0235,-5.0251,-5.0035,-5.0033,-5.0031,-5.003,0,0,-5.0047,-5.0052,-5.007,-5.0078,-5.0088,-5.012,-5.0171,-5.02,-5.0221,-5.0237,-5.0279,-5.0328,-5.0292,-5.0306,-5.0284,-5.0323,-5.0422,-5.0279,-5.0278,-5.0304,-5.0525,-5.0553,-5.0573,-5.0399,-5.0402,-5.0404,-5.0524,0,-5.0171,-5.026,-5.0235,-5.0324,-5.0362,-5.0313,-5.0358,-5.0368,-5.036,-5.039,-5.0382,-5.0417,-5.0367,-5.0375,-5.0411,-5.0403,-5.0466,-5.0394,-5.0436,-5.0438,-5.0433,-5.0593,-5.0623,-5.0736,-5.0539,-5.0542,-5.0543,0,-5.0327,-5.0349,-5.0441,-5.0443,-5.0458,-5.0499,-5.0521,-5.0552,-5.0561,-5.0553,-5.0568,-5.0538,-5.0587,-5.0526,-5.0593,-5.0544,-5.056,-5.0559,-5.0562,-5.0564,-5.0496,-5.0598,-5.0771,-5.0788,-5.0567,-5.0565,-5.0564,0,-5.0446,-5.0499,-5.0561,-5.057,-5.0574,-5.0603,-5.0606,-5.0612,-5.063,-5.065,-5.0661,-5.0687,-5.07,-5.072,-5.0697,-5.0655,-5.0767,-5.0704,-5.076,-5.076,-5.0784,-5.0783,-5.0962,-5.0797,-5.0797,-5.0797,-5.0796,0,-5.0586,-5.0644,-5.0614,-5.0652,-5.0715,-5.0686,-5.0749,-5.0746,-5.0751,-5.0787,-5.0746,-5.078,-5.0749,-5.0779,-5.0762,-5.0819,-5.0826,-5.0819,-5.0813,-5.0822,-5.0823,-5.0831,-5.0822,-5.0801,-5.08,-5.0799,-5.0799,0,-5.073,-5.0713,-5.0776,-5.0774,-5.0775,-5.0822,-5.0819,-5.0853,-5.0843,-5.0888,-5.0897,-5.088,-5.0914,-5.0893,-5.0928,-5.0916,-5.0989,-5.0974,-5.0986,-5.0981,-5.1038,-5.1032,-5.1226,-5.125,-5.1072,-5.1074,-5.1075,0,-5.082,-5.0863,-5.0865,-5.0886,-5.0892,-5.0926,-5.0944,-5.0916,-5.0936,-5.095,-5.0982,-5.1013,-5.1035,-5.1092,-5.1082,-5.1108,-5.1091,-5.1158,-5.1095,-5.1101,-5.109,-5.1087,-5.1091,-5.117,-5.1172,-5.1174,-5.1175,0,-5.098,-5.0969,-5.0997,-5.1021,-5.1044,-5.1062,-5.1076,-5.1096,-5.1068,-5.1092,-5.1127,-5.1144,-5.1179,-5.1209,-5.1231,-5.1232,-5.1199,-5.1195,-5.1209,-5.1217,-5.1222,-5.1218,-5.1019,-5.119,-5.1189,-5.1188,-5.1187,-5.1186,-5.1098,-5.1133,-5.114,-5.1172,-5.118,-5.1194,-5.1226,-5.1219,-5.1247,-5.1273,-5.1255,-5.1295,-5.1302,-5.1327,-5.1333,-5.1363,-5.1336,-5.1357,-5.1362,-5.1367,-5.1374,-5.1219,-5.1367,-5.1367,-5.1366,-5.1366,-5.1366,0,-5.1254,-5.1256,-5.1286,-5.1307,-5.1332,-5.1299,-5.1313,-5.1335,-5.1371,-5.138,-5.1403,-5.1442,-5.1471,-5.1463,-5.1489,-5.1514,-5.1499,-5.1522,-5.1519,-5.1519,-5.1398,-5.1382,-5.1533,-5.1533,-5.1533,-5.1533,-5.1533,-5.1533,-5.1339,-5.1396,-5.1386,-5.1447,-5.1448,-5.1487,-5.1497,-5.151,-5.1517,-5.1561,-5.1585,-5.158,-5.1582,-5.1607,-5.1632,-5.1629,-5.1639,-5.1667,-5.1658,-5.1545,-5.1528,-5.1512,-5.1497,-5.167,-5.167,-5.1777,-5.1778,-5.1779]}]]